FDX5132 PANC-RKSI

Flight info

Callsign FDX5132
Flight time N/A
Altitude 32000
Route NODLE R220 NICHO/N0484F330 R220 NOSHO/N0481F340 R220 NATES/N0489F350 R220 NRKEY/N0483F360 R220 NUBDA/N0479F370 R220 NODAN/N0481F360 R217 SDE Y512 ELDAK/N0477F380 Y512 GTC Y142 SAMON Y14 SUGNO Y16 SAPRA G585 GUKDO GUKDO2E
Aircraft MD11/H-SDE1E2E3FGHIJ2J3J4J5M1RWXY/LB1D1

Departure

Time 2026-05-07 02:43
Airport Ted Stevens Anchorage International Airport (PANC)

Arrival

Time N/A
Airport Incheon International Airport (RKSI)
Time Latitude Longitude Altitude Speed Heading
2026-05-07 02:29 61.18934 -150.00072 163 ft 2 kts 311°
2026-05-07 02:29 61.18923 -150.00053 163 ft 2 kts 335°
2026-05-07 02:29 61.18916 -150.00047 163 ft 1 kts 345°
2026-05-07 02:29 61.18914 -150.00047 163 ft 0 kts 345°
2026-05-07 02:31 61.18941 -150.00063 163 ft 9 kts 343°
2026-05-07 02:31 61.19025 -150.00116 163 ft 14 kts 343°
2026-05-07 02:32 61.19123 -150.00185 163 ft 13 kts 329°
2026-05-07 02:32 61.19143 -150.00326 163 ft 11 kts 265°
2026-05-07 02:32 61.19123 -150.00485 163 ft 11 kts 253°
2026-05-07 02:32 61.19098 -150.00592 163 ft 4 kts 207°
2026-05-07 02:33 61.19071 -150.00592 163 ft 3 kts 172°
2026-05-07 02:33 61.19040 -150.00581 163 ft 5 kts 165°
2026-05-07 02:33 61.18982 -150.00549 163 ft 12 kts 165°
2026-05-07 02:33 61.18878 -150.00493 163 ft 18 kts 165°
2026-05-07 02:34 61.18743 -150.00417 163 ft 21 kts 165°
2026-05-07 02:34 61.18597 -150.00333 163 ft 21 kts 165°
2026-05-07 02:34 61.18449 -150.00247 163 ft 22 kts 164°
2026-05-07 02:34 61.18295 -150.00159 163 ft 23 kts 164°
2026-05-07 02:35 61.18135 -150.00067 163 ft 24 kts 165°
2026-05-07 02:35 61.17970 -149.99973 163 ft 24 kts 164°
2026-05-07 02:35 61.17804 -149.99878 163 ft 24 kts 165°
2026-05-07 02:35 61.17636 -149.99782 163 ft 25 kts 164°
2026-05-07 02:36 61.17466 -149.99686 163 ft 25 kts 165°
2026-05-07 02:36 61.17293 -149.99588 163 ft 25 kts 164°
2026-05-07 02:36 61.17190 -149.99527 163 ft 9 kts 165°
2026-05-07 02:36 61.17134 -149.99458 163 ft 10 kts 120°
2026-05-07 02:37 61.17125 -149.99312 163 ft 10 kts 90°
2026-05-07 02:37 61.17124 -149.99152 163 ft 12 kts 90°
2026-05-07 02:37 61.17124 -149.98949 163 ft 16 kts 90°
2026-05-07 02:37 61.17125 -149.98682 163 ft 19 kts 89°
2026-05-07 02:38 61.17124 -149.98395 163 ft 20 kts 91°
2026-05-07 02:38 61.17121 -149.98096 163 ft 21 kts 91°
2026-05-07 02:38 61.17118 -149.97789 163 ft 21 kts 90°
2026-05-07 02:38 61.17119 -149.97475 163 ft 22 kts 89°
2026-05-07 02:39 61.17122 -149.97153 163 ft 22 kts 88°
2026-05-07 02:39 61.17127 -149.96825 163 ft 23 kts 89°
2026-05-07 02:39 61.17126 -149.96486 163 ft 23 kts 91°
2026-05-07 02:39 61.17125 -149.96141 163 ft 24 kts 91°
2026-05-07 02:40 61.17124 -149.95787 163 ft 24 kts 90°
2026-05-07 02:40 61.17121 -149.95425 163 ft 25 kts 89°
2026-05-07 02:40 61.17123 -149.95090 163 ft 16 kts 90°
2026-05-07 02:40 61.17118 -149.94862 163 ft 11 kts 111°
2026-05-07 02:41 61.17057 -149.94827 163 ft 10 kts 202°
2026-05-07 02:41 61.16995 -149.94896 163 ft 10 kts 232°
2026-05-07 02:41 61.16981 -149.94983 163 ft 0 kts 269°
2026-05-07 02:42 61.16980 -149.95203 163 ft 46 kts 269°
2026-05-07 02:42 61.16980 -149.96426 163 ft 119 kts 269°
2026-05-07 02:42 61.16976 -149.98581 164 ft 177 kts 270°
2026-05-07 02:42 61.16974 -150.01303 477 ft 194 kts 269°
2026-05-07 02:43 61.16974 -150.04060 1106 ft 196 kts 269°
2026-05-07 02:43 61.16972 -150.06879 1774 ft 198 kts 268°
2026-05-07 02:43 61.16969 -150.09731 2397 ft 203 kts 268°
2026-05-07 02:43 61.16962 -150.12791 2769 ft 226 kts 268°
2026-05-07 02:44 61.16950 -150.16197 3154 ft 247 kts 268°
2026-05-07 02:44 61.17078 -150.19800 3552 ft 258 kts 276°
2026-05-07 02:44 61.17353 -150.23515 3963 ft 268 kts 277°
2026-05-07 02:44 61.17665 -150.27458 4392 ft 282 kts 277°
2026-05-07 02:45 61.17953 -150.31525 5025 ft 291 kts 276°
2026-05-07 02:45 61.18208 -150.35664 5789 ft 296 kts 275°
2026-05-07 02:45 61.18446 -150.39882 6626 ft 299 kts 274°
2026-05-07 02:45 61.18675 -150.44138 7488 ft 301 kts 274°
2026-05-07 02:46 61.18908 -150.48451 8350 ft 303 kts 275°
2026-05-07 02:46 61.19146 -150.52766 9278 ft 305 kts 274°
2026-05-07 02:46 61.19395 -150.57150 10137 ft 307 kts 274°
2026-05-07 02:46 61.19642 -150.61540 10914 ft 311 kts 275°
2026-05-07 02:47 61.19901 -150.66144 11206 ft 333 kts 274°
2026-05-07 02:47 61.20182 -150.71065 11342 ft 358 kts 274°
2026-05-07 02:47 61.20493 -150.76384 11508 ft 382 kts 275°
2026-05-07 02:47 61.20824 -150.81888 12153 ft 391 kts 275°
2026-05-07 02:48 61.21162 -150.87494 12904 ft 397 kts 275°
2026-05-07 02:48 61.21498 -150.93092 13703 ft 401 kts 275°
2026-05-07 02:48 61.21845 -150.98869 14499 ft 406 kts 275°
2026-05-07 02:48 61.22197 -151.04700 15298 ft 409 kts 276°
2026-05-07 02:49 61.22551 -151.10527 16117 ft 411 kts 276°
2026-05-07 02:49 61.22911 -151.16399 16910 ft 414 kts 276°
2026-05-07 02:49 61.23275 -151.22276 17679 ft 416 kts 276°
2026-05-07 02:49 61.23644 -151.28218 18431 ft 419 kts 277°
2026-05-07 02:50 61.24020 -151.34184 19195 ft 421 kts 277°
2026-05-07 02:50 61.24395 -151.40138 19953 ft 423 kts 277°
2026-05-07 02:50 61.24782 -151.46240 20644 ft 426 kts 277°
2026-05-07 02:50 61.25169 -151.52296 21353 ft 429 kts 277°
2026-05-07 02:51 61.25562 -151.58418 22052 ft 432 kts 277°
2026-05-07 02:51 61.25962 -151.64581 22750 ft 434 kts 278°
2026-05-07 02:51 61.26372 -151.70805 23424 ft 438 kts 277°
2026-05-07 02:51 61.26790 -151.77066 24075 ft 441 kts 277°
2026-05-07 02:52 61.27212 -151.83359 24742 ft 443 kts 277°
2026-05-07 02:52 61.27628 -151.89723 25328 ft 447 kts 276°
2026-05-07 02:52 61.27967 -151.96141 25894 ft 450 kts 275°
2026-05-07 02:52 61.28224 -152.02658 26443 ft 454 kts 274°
2026-05-07 02:53 61.28394 -152.09218 27056 ft 456 kts 271°
2026-05-07 02:53 61.28445 -152.15773 27765 ft 455 kts 270°
2026-05-07 02:53 61.28428 -152.22295 28493 ft 453 kts 269°
2026-05-07 02:53 61.28383 -152.28821 29208 ft 451 kts 269°
2026-05-07 02:54 61.28332 -152.35306 29884 ft 450 kts 269°
2026-05-07 02:54 61.28286 -152.41715 30482 ft 448 kts 269°
2026-05-07 02:54 61.28247 -152.48149 31034 ft 446 kts 270°
2026-05-07 02:54 61.28216 -152.54544 31372 ft 446 kts 270°
2026-05-07 02:55 61.28188 -152.61020 31655 ft 447 kts 270°
2026-05-07 02:55 61.28165 -152.67424 31810 ft 449 kts 269°
2026-05-07 02:55 61.28126 -152.80350 31879 ft 447 kts 269°
2026-05-07 02:56 61.28098 -152.93109 31889 ft 447 kts 270°
2026-05-07 02:56 61.28080 -153.05911 31893 ft 446 kts 270°
2026-05-07 02:57 61.28074 -153.18683 31891 ft 446 kts 270°
2026-05-07 02:57 61.28080 -153.31604 31881 ft 447 kts 270°
2026-05-07 02:58 61.28097 -153.44452 31874 ft 447 kts 270°
2026-05-07 02:58 61.28126 -153.57326 31870 ft 447 kts 271°
2026-05-07 02:59 61.28173 -153.70062 31894 ft 447 kts 270°
2026-05-07 02:59 61.28236 -153.82895 31937 ft 448 kts 270°
2026-05-07 03:00 61.28176 -153.95816 31932 ft 448 kts 268°
2026-05-07 03:00 61.27903 -154.08730 31922 ft 448 kts 268°
2026-05-07 03:01 61.27639 -154.21605 31905 ft 448 kts 268°
2026-05-07 03:01 61.27410 -154.34526 31894 ft 447 kts 269°
2026-05-07 03:02 61.27202 -154.47406 31923 ft 447 kts 269°
2026-05-07 03:02 61.27006 -154.60286 31967 ft 448 kts 269°
2026-05-07 03:03 61.26818 -154.73167 31995 ft 448 kts 268°
2026-05-07 03:03 61.26644 -154.86081 32023 ft 449 kts 269°
2026-05-07 03:04 61.26479 -154.99040 32043 ft 448 kts 269°
2026-05-07 03:04 61.26327 -155.11881 32044 ft 448 kts 269°
2026-05-07 03:05 61.26186 -155.24883 32049 ft 449 kts 269°
2026-05-07 03:05 61.26059 -155.37767 32060 ft 449 kts 270°
2026-05-07 03:06 61.25951 -155.50652 32054 ft 449 kts 270°
2026-05-07 03:06 61.25831 -155.63612 32058 ft 449 kts 269°
2026-05-07 03:07 61.25516 -155.76476 32066 ft 450 kts 267°
2026-05-07 03:07 61.25207 -155.89416 32065 ft 451 kts 268°
2026-05-07 03:08 61.24961 -156.02408 32048 ft 451 kts 269°
2026-05-07 03:08 61.24977 -156.15401 32034 ft 451 kts 271°
2026-05-07 03:09 61.24959 -156.28407 32049 ft 451 kts 270°
2026-05-07 03:09 61.24897 -156.41391 32048 ft 451 kts 270°
2026-05-07 03:10 61.24836 -156.54375 32043 ft 451 kts 271°
2026-05-07 03:10 61.24789 -156.67380 32044 ft 452 kts 270°
2026-05-07 03:11 61.24755 -156.80397 32050 ft 453 kts 271°
2026-05-07 03:11 61.24736 -156.93373 32045 ft 453 kts 271°
2026-05-07 03:12 61.24731 -157.06485 32042 ft 453 kts 271°
2026-05-07 03:12 61.24739 -157.19524 32033 ft 453 kts 271°
2026-05-07 03:13 61.24759 -157.32567 32042 ft 453 kts 271°
2026-05-07 03:13 61.24790 -157.45631 32031 ft 453 kts 272°
2026-05-07 03:14 61.24843 -157.58621 32030 ft 453 kts 272°
2026-05-07 03:15 61.24928 -157.78268 32037 ft 455 kts 270°
2026-05-07 03:15 61.24714 -157.91353 32042 ft 455 kts 269°
2026-05-07 03:16 61.24434 -158.04396 32018 ft 455 kts 269°
2026-05-07 03:16 61.24188 -158.17540 32011 ft 455 kts 270°
2026-05-07 03:17 61.23974 -158.30605 32010 ft 455 kts 270°
2026-05-07 03:17 61.23774 -158.43634 32005 ft 455 kts 270°
2026-05-07 03:18 61.23586 -158.56718 32002 ft 454 kts 271°
2026-05-07 03:18 61.23410 -158.69691 32015 ft 454 kts 270°
2026-05-07 03:19 61.23272 -158.80542 32026 ft 455 kts 270°
2026-05-07 03:19 61.23092 -158.95825 32033 ft 456 kts 271°
2026-05-07 03:20 61.22948 -159.08978 32047 ft 456 kts 271°
2026-05-07 03:20 61.22818 -159.22070 32059 ft 456 kts 271°
2026-05-07 03:21 61.22710 -159.35156 32070 ft 456 kts 272°